Location: �ngelsb�cksstrand
(56.3500°N, 12.7333°E)
Time: 16:22:51
(UTC+00:00)

Daily predictions for brighter satellites

Satellite Brightness Start Highest point End
(mag) Time Altitude Azimuth Time Altitude Azimuth Time Altitude Azimuth
ATLAS 2AS CENTAUR R/B 3.1 20:42:26 10° NW 20:50:18 83° NE 20:57:30 10° SE
Resurs 01 Rocket 4.1 20:51:21 10° SW 20:54:25 18° W 20:57:30 10° NW
Cosmos 1818 3.6 20:51:48 10° SW 20:57:14 75° SE 21:02:42 10° NE
Cosmos 2221 2.7 20:53:12 10° N 20:57:37 70° ENE 21:01:58 10° SSE
Cosmos 773 Rocket 4.1 20:54:45 10° SSW 21:00:01 70° ESE 21:05:18 10° NNE
GEOS 3 Rocket 3.8 20:55:49 10° NE 21:01:11 63° SE 21:06:33 10° SW
SL-16 R/B 3.4 20:55:41 10° WSW 21:01:11 49° NW 21:06:43 10° NNE
ERS-1 Rocket 3.7 20:58:33 10° S 21:03:28 51° W 21:08:24 10° NNW
USA 215 3.7 20:58:27 10° ENE 21:04:34 40° SE 21:10:39 10° SSW
Cosmos 2278 Rocket 2.3 21:01:25 10° NW 21:07:08 81° WSW 21:12:49 10° SSE
Cosmos 1892 3.7 21:07:21 10° SSE 21:10:43 31° E 21:14:07 10° NNE
Cosmos 1844 Rocket 4.4 21:06:59 10° NW 21:11:19 24° WSW 21:15:38 10° SSW
Aureole 2 Rocket 3.7 21:11:22 10° N 21:13:44 24° NE 21:16:10 10° ESE
ATLAS 5 CENTAUR R/B 1.6 21:09:27 10° SW 21:13:44 76° SE 21:18:42 10° NE
Meteor 1-11 4.4 21:08:58 10° SSW 21:14:37 82° WNW 21:20:24 10° NNE
Cosmos 1943 Rocket 3.6 21:09:53 10° NNW 21:15:05 35° NE 21:20:16 10° E
SPOT 5 3.9 21:15:29 10° S 21:20:14 42° W 21:24:46 10° NNW
Lacrosse 5 rocket 1.4 21:17:06 10° W 21:21:18 80° N 21:25:16 10° E
Cosmos 2056 Rocket 3.9 21:16:33 10° NNW 21:21:56 64° ENE 21:27:20 10° SE
Nadezhda 3 Rocket 4.2 21:16:19 10° N 21:22:44 71° ENE 21:29:03 10° SSE
SL-16 R/B 4.1 21:20:02 10° SE 21:22:48 14° E 21:25:33 10° ENE
Spot 4 4.2 21:20:12 10° SE 21:24:53 59° ENE 21:29:36 10° N
USA 81 4.5 21:22:13 10° SSW 21:27:28 66° WNW 21:32:45 10° N
Cosmos 2058 3.3 21:25:10 10° S 21:29:10 48° E 21:33:11 10° NNE
Cosmos 2154 Rocket 4.3 21:23:27 10° SSE 21:29:25 52° E 21:35:26 10° NNE
Cosmos 1408 3.6 21:29:06 11° SSE 21:32:10 32° E 21:35:23 10° NNE
TSX-5 4.3 21:30:48 10° NW 21:34:00 41° WSW 21:37:35 11° SSE
In-Cosmos 22 Rocket 4.2 21:30:26 10° S 21:35:39 61° E 21:40:55 10° NNE
Cosmos 2074 Rocket 4.0 21:30:28 10° S 21:36:42 83° E 21:42:57 10° NNE
Cosmos 1076 Rocket 3.7 21:36:11 10° S 21:40:23 56° E 21:44:35 10° NNE
USA 267 3.7 21:34:19 10° SE 21:40:34 45° SW 21:46:51 10° WNW
Cosmos 1680 Rocket 4.1 21:35:58 10° S 21:40:55 41° ESE 21:45:54 10° NE
CZ-4C R/B 3.4 21:37:30 10° WNW 21:43:50 58° NNE 21:51:26 10° E
JB-3 4.3 21:41:43 10° NNE 21:45:37 90° S 21:49:26 10° SSW
COSMOS 2455 3.4 21:41:27 10° NW 21:47:28 60° NE 21:53:26 10° ESE
Cosmos 2322 Rocket 4.1 21:43:40 10° W 21:48:46 34° NW 21:53:54 10° NNE
Cosmos 1452 Rocket 4.4 21:43:48 10° NNW 21:48:54 46° NE 21:53:57 10° SE
MTI 3.9 21:46:33 10° NNE 21:49:39 71° WNW 21:52:43 10° SSW
Cosmos 2151 3.9 21:47:18 12° SSE 21:50:53 35° E 21:54:48 10° NNE
Helios 1A 4.4 21:48:54 10° ESE 21:52:34 30° ENE 21:56:15 10° N
ATLAS CENTAUR R/B 3.4 21:53:50 10° W 21:55:39 13° WSW 21:57:27 10° SW
Cosmos 923 Rocket 4.1 21:53:08 10° SSW 21:58:21 66° ESE 22:03:37 10° NNE
Cosmos 1933 4.2 21:54:57 10° N 21:58:47 41° ENE 22:02:24 11° SE
Cosmos 2327 Rocket 4.5 21:52:41 10° S 21:58:53 84° E 22:05:02 10° NNE
Cosmos 1151 Rocket 3.7 21:55:05 10° N 21:59:19 46° ENE 22:03:13 11° SE
Cosmos 2369 Rocket 3.2 21:54:14 10° NNW 21:59:36 43° NE 22:04:56 10° ESE
Cosmos 1825 2.7 21:58:09 13° SSE 22:01:16 45° E 22:04:54 10° NNE
ALOS 2 2.8 21:58:03 12° SSE 22:02:04 64° ENE 22:06:27 10° N
APEX 3.3 21:59:40 10° NNW 22:02:23 42° NE 22:05:00 10° ESE
Cosmos 1980 3.9 21:57:41 10° SSW 22:03:12 57° ESE 22:08:44 10° NE
Cosmos 371 Rocket 3.5 22:02:11 10° NNW 22:07:05 68° ENE 22:11:47 11° SE
GP-B 3.7 22:03:21 10° N 22:07:39 45° E 22:11:23 13° SSE
COSMOS 2428 2.9 22:02:28 10° SW 22:08:09 76° NW 22:13:53 10° NE
Cosmos 1624 Rocket 4.2 22:07:12 10° NNW 22:12:25 63° WSW 22:16:57 13° S
Cosmos 1295 Rocket 4.5 22:06:31 10° S 22:12:35 78° E 22:18:42 10° NNE
NOSS 3-4 (A) 4.2 22:06:38 10° NW 22:13:09 49° SW 22:19:47 12° SSE
NOSS 3-4 (C) 4.2 22:06:44 10° NW 22:13:16 49° SW 22:19:55 12° SSE
NOSS 0 Rocket 3.9 22:09:28 10° SSW 22:15:36 74° ESE 22:21:48 10° NE
Terra 3.8 22:12:23 10° SW 22:15:58 21° W 22:19:35 10° NW
Cosmos 1782 4.1 22:16:18 10° N 22:19:54 32° ENE 22:23:28 10° SE
SL-4 R/B 1.5 22:19:54 17° SE 22:21:12 35° ENE 22:23:10 10° N
Cosmos 2237 Rocket 2.2 22:15:48 10° SSW 22:21:28 70° ESE 22:27:10 10° NE
Genesis I 3.8 22:18:35 12° SSW 22:21:52 37° SE 22:25:30 10° ENE
Cosmos 2219 Rocket 2.8 22:18:32 10° SW 22:24:03 58° NW 22:29:39 10° NNE
Cosmos 2344 3.9 22:17:07 10° SSW 22:24:12 49° SE 22:32:05 10° NE
Cosmos 2360 Rocket 4.1 22:21:33 10° W 22:26:40 33° NW 22:31:48 10° NNE
NOSS 3-3 (A) 4.1 22:20:39 10° SW 22:26:46 89° NW 22:33:51 10° NE
NOSS 3-3 (C) 4.1 22:20:44 10° SW 22:26:53 89° NW 22:33:58 10° NE
Thor Agena Rocket 3.5 22:23:00 10° NNE 22:28:10 89° WNW 22:33:16 10° SSW
Cosmos 1346 Rocket 4.4 22:28:04 11° SE 22:30:52 23° E 22:34:00 10° NE
Cosmos 2333 Rocket 3.1 22:28:44 10° WSW 22:34:19 51° NW 22:39:56 10° NNE
RESURS DK-1 3.4 22:34:02 10° NNW 22:38:02 45° NE 22:42:01 10° ESE
Cosmos 1515 Rocket 3.8 22:35:12 10° N 22:39:32 64° ENE 22:43:15 14° SSE
ATLAS 2AS CENTAUR R/B 3.6 22:33:52 10° NW 22:40:48 39° WSW 22:46:25 13° S
BREEZE-M DEB (TANK) 3.2 22:38:48 10° WSW 22:40:55 15° SSW 22:41:22 15° SSW
EO 1 Del DPAF 3.5 22:37:38 10° N 22:41:23 66° WNW 22:44:59 11° SSW
Cosmos 1892 4.2 22:42:58 10° SW 22:46:24 32° WNW 22:49:52 10° N
Cosmos 1328 Rocket 3.6 22:42:37 10° NNW 22:46:57 75° W 22:50:25 15° S
Aureole 2 Rocket 3.2 22:44:52 10° NW 22:47:20 28° WSW 22:48:59 16° SSW
Cosmos 1766 Rocket 3.6 22:44:24 15° S 22:48:03 78° E 22:52:30 10° NNE
USA 215 3.2 22:41:35 10° ENE 22:48:11 78° SSE 22:54:46 10° WSW
Cosmos 1606 3.1 22:45:30 10° NNW 22:49:18 54° W 22:52:19 15° S
Cosmos 2278 Rocket 4.0 22:46:30 10° WNW 22:50:25 19° W 22:54:19 10° SW
Okean 3 Rocket 3.6 22:47:02 14° S 22:50:54 89° WNW 22:55:21 10° NNE
Cosmos 2297 4.2 22:47:01 10° NW 22:52:33 49° WSW 22:57:11 14° S
Cosmos 304 Rocket 3.8 22:48:40 10° NNW 22:53:32 83° ENE 22:58:04 12° SSE
Cosmos 2112 Rocket 4.2 22:49:06 10° SSW 22:54:27 77° WNW 22:59:52 10° NNE
Cosmos 2228 Rocket 3.7 22:50:39 10° N 22:55:12 54° ENE 22:59:19 12° SSE
Cosmos 1420 Rocket 4.4 22:51:11 10° NW 22:56:19 53° WSW 23:00:36 15° S
Cosmos 2218 Rocket 4.1 22:50:54 14° S 22:56:32 76° E 23:02:50 10° NNE
Cosmos 158 Rocket 4.2 22:53:46 10° SW 22:58:37 67° WNW 23:03:34 10° NNE
ATLAS 5 CENTAUR R/B 3.1 22:54:21 10° W 22:58:43 44° NNW 23:03:49 10° ENE
Cosmos 1943 Rocket 2.2 22:53:41 10° NW 22:59:24 77° WSW 23:04:40 12° SSE
Lacrosse 5 rocket 1.2 22:56:26 10° WNW 23:00:28 64° SSW 23:04:15 10° ESE
Cosmos 2366 rocket 4.1 22:56:35 14° S 23:02:13 79° E 23:08:35 10° NNE
Cosmos 1633 3.3 23:01:11 16° SSE 23:03:46 41° E 23:07:13 10° NNE
SL-16 R/B 2.4 23:00:46 13° SSW 23:05:47 61° ESE 23:11:25 10° NE
Cosmos 1408 4.2 23:04:05 10° SW 23:07:13 28° WNW 23:10:22 10° N
YAOGAN 11 4.2 23:09:09 15° S 23:12:41 72° WSW 23:17:10 10° NNW
Cosmos 1743 Rocket 4.0 23:12:36 15° SSE 23:15:58 51° E 23:20:14 10° NNE
Cosmos 332 Rocket 4.2 23:13:05 10° NW 23:17:44 50° WSW 23:21:28 15° S
Cosmos 2341 Rocket 4.4 23:11:52 10° SSW 23:18:00 58° WNW 23:24:09 10° N
Cosmos 1331 Rocket 4.2 23:12:40 10° NNW 23:18:02 77° ENE 23:23:21 10° SSE
Cosmos 1680 Rocket 4.5 23:17:53 10° SW 23:23:02 47° NW 23:28:12 10° NNE
Meteor 2-3 Rocket 3.8 23:21:02 14° SSW 23:25:59 90° ESE 23:31:45 10° NNE
Cosmos 405 3.2 23:23:03 10° NNW 23:26:35 60° W 23:29:08 17° S
Helios 1A 3.6 23:24:53 15° SSW 23:28:01 43° W 23:32:02 10° NNW
Cosmos 2151 4.3 23:24:16 10° SW 23:28:12 35° WNW 23:32:09 10° N
Meteor 1-10 Rocket 4.3 23:24:51 10° NNW 23:30:30 76° ENE 23:35:50 11° SSE
Cosmos 1452 Rocket 4.2 23:26:06 10° NW 23:31:03 42° WSW 23:35:07 15° S
CZ-4C R/B 2.9 23:26:02 10° NW 23:32:50 73° SW 23:40:52 10° SE
Meteor 2-6 Rocket 4.2 23:27:23 10° NNW 23:32:57 89° ENE 23:37:54 13° SSE
PSLV R/B 3.9 23:29:03 10° NNE 23:33:12 53° E 23:36:34 15° S
Cosmos 389 Rocket 3.9 23:30:01 10° N 23:33:19 34° ENE 23:36:32 10° SE
COSMOS 2455 3.3 23:27:37 10° NW 23:33:21 45° WSW 23:38:24 13° S
Cosmos 1110 Rocket 4.0 23:29:52 10° NNW 23:35:10 78° WSW 23:40:16 11° SSE
Cosmos 1151 Rocket 4.5 23:33:00 10° NNW 23:36:41 27° W 23:40:03 11° SW
SL-8 Rocket 4.5 23:30:59 10° SSW 23:36:58 56° WNW 23:43:02 10° N
Cosmos 1825 4.1 23:33:54 10° WSW 23:36:59 23° WNW 23:40:06 10° N
Cosmos 1340 3.1 23:34:23 14° SSW 23:37:32 57° WNW 23:41:17 10° N
ALOS 2 4.3 23:35:26 10° SW 23:38:49 21° W 23:42:14 10° NW
Cosmos 1408 Rocket 3.9 23:35:56 13° SSW 23:39:43 60° WNW 23:44:07 10° N
SL-16 R/B 3.4 23:34:02 10° SE 23:39:59 49° ENE 23:46:00 10° NNW
Cosmos 1727 Rocket 4.4 23:36:42 10° NNW 23:42:43 52° W 23:48:04 13° SSW
Resurs 1-4 Rocket 4.0 23:39:15 10° NE 23:43:18 21° E 23:47:20 10° SE
APEX 4.4 23:41:49 10° WNW 23:43:29 15° WSW 23:44:22 13° SW
Cosmos 2369 Rocket 2.4 23:38:22 10° NW 23:43:50 55° WSW 23:48:49 12° S
SeaSat 1 4.2 23:43:43 10° ENE 23:47:24 21° ESE 23:51:05 10° SSE
Cosmos 44 3.0 23:43:49 10° SW 23:48:10 85° SE 23:52:43 10° NE
Cosmos 1500 Rocket 3.6 23:44:49 15° SSW 23:48:27 88° W 23:52:53 10° NNE
Helios 1B rocket 2.6 23:47:53 10° NNE 23:52:02 66° ESE 23:55:23 15° S
Cosmos 1782 3.8 23:52:38 10° NNW 23:56:14 34° W 23:59:10 14° SSW
